Tracking 19242 objects as of 15-Aug-2018
HD Live streaming from Space Station
objects crossing your sky now

COSMOS 1295

Track COSMOS 1295 now!
10-day predictions
COSMOS 1295 is classified as:


NORAD ID: 12681
Int'l Code: 1981-077A
Perigee: 951.5 km
Apogee: 1,016.3 km
Inclination: 82.9 °
Period: 104.6 minutes
Semi major axis: 7354 km
RCS: 2.187 m2 (large)
Launch date: August 12, 1981
Source: Commonwealth of Independent States (former USSR) (CIS)
Launch site: PLESETSK MISSILE AND SPACE COMPLEX (PKMTR)
aabbcc
Your satellite tracking list
Your tracking list is empty




NASA's NSSDC Master Catalog

Two Line Element Set (TLE):
1 12681U 81077A   18226.81143671  .00000027  00000-0  12181-4 0  9997
2 12681  82.9167  94.5025 0044072 359.2778  49.2021 13.76384362858581
Source of the keplerian elements: AFSPC